• In Hungary
  • List of Countries
  • For 7 days
  • Water Temperature
  • Satellite Maps
  • Weather Map
  • News
  • Weather Widgets
  • user-avatar
    Login

    Hourly Weather Anyb

    Today, 18 September, Tuesday

    Time Temperature Precipitation Wind Pressure Humidity
    00:00 +8°C° 0 mm 3 mps 746 mmHg 94%
    01:00 +7°C° 0 mm 3 mps 746 mmHg 95%
    02:00 +5°C° 0 mm 3 mps 747 mmHg 96%
    03:00 +6°C° 0 mm 2 mps 747 mmHg 96%
    04:00 +6°C° 0 mm 2 mps 747 mmHg 97%
    05:00 +6°C° 0 mm 2 mps 747 mmHg 97%
    06:00 +6°C° 0 mm 2 mps 748 mmHg 96%
    07:00 +5°C° 0 mm 2 mps 748 mmHg 96%
    08:00 +7°C° 0 mm 2 mps 748 mmHg 92%
    09:00 +8°C° 0 mm 3 mps 748 mmHg 88%
    10:00 +9°C° 0 mm 3 mps 748 mmHg 83%
    11:00 +10°C° 0 mm 3 mps 747 mmHg 77%
    12:00 +11°C° 0 mm 3 mps 747 mmHg 70%
    13:00 +12°C° 0 mm 3 mps 747 mmHg 64%
    14:00 +13°C° 0 mm 3 mps 746 mmHg 61%
    15:00 +13°C° 0 mm 3 mps 746 mmHg 59%
    16:00 +13°C° 0 mm 3 mps 745 mmHg 56%
    17:00 +12°C° 0 mm 3 mps 745 mmHg 63%
    18:00 +11°C° 0 mm 3 mps 745 mmHg 69%
    19:00 +9°C° 0 mm 2 mps 744 mmHg 75%
    20:00 +9°C° 0 mm 2 mps 744 mmHg 76%
    21:00 +9°C° 0 mm 2 mps 744 mmHg 78%
    22:00 +8°C° 0 mm 2 mps 744 mmHg 80%
    23:00 +8°C° 0 mm 2 mps 743 mmHg 83%

    Tomorrow, 19 September, Wednesday

    Time Temperature Precipitation Wind Pressure Humidity
    00:00 +8°C° 0 mm 1 mps 743 mmHg 85%
    01:00 +8°C° 0 mm 1 mps 742 mmHg 88%
    02:00 +8°C° 0 mm 1 mps 742 mmHg 90%
    03:00 +7°C° 0 mm 1 mps 742 mmHg 92%
    04:00 +7°C° 0 mm 1 mps 742 mmHg 94%
    05:00 +7°C° 0.1 mm 1 mps 742 mmHg 93%
    06:00 +7°C° 0.1 mm 1 mps 742 mmHg 92%
    07:00 +7°C° 0.1 mm 0 mps 741 mmHg 91%
    08:00 +9°C° 0.1 mm 1 mps 742 mmHg 87%
    09:00 +9°C° 0.1 mm 1 mps 742 mmHg 83%
    10:00 +10°C° 0.1 mm 1 mps 742 mmHg 80%
    11:00 +11°C° 0.2 mm 1 mps 742 mmHg 78%
    12:00 +10°C° 0.2 mm 2 mps 742 mmHg 76%
    13:00 +12°C° 0.2 mm 2 mps 742 mmHg 74%
    14:00 +12°C° 0.4 mm 2 mps 742 mmHg 76%
    15:00 +10°C° 0.4 mm 2 mps 742 mmHg 79%
    16:00 +10°C° 0.4 mm 2 mps 743 mmHg 82%
    17:00 +10°C° 0.4 mm 2 mps 743 mmHg 84%
    18:00 +9°C° 0.4 mm 2 mps 743 mmHg 86%
    19:00 +9°C° 0.4 mm 2 mps 743 mmHg 89%
    20:00 +8°C° 0 mm 2 mps 743 mmHg 88%
    21:00 +8°C° 0 mm 3 mps 743 mmHg 88%
    22:00 +7°C° 0 mm 3 mps 743 mmHg 88%
    23:00 +7°C° 0 mm 3 mps 743 mmHg 88%

    Day after tomorrow, 20 September, Thursday

    Time Temperature Precipitation Wind Pressure Humidity
    00:00 +7°C° 0 mm 3 mps 743 mmHg 88%
    01:00 +5°C° 0 mm 3 mps 743 mmHg 88%
    02:00 +5°C° 0 mm 3 mps 743 mmHg 89%
    03:00 +4°C° 0 mm 3 mps 744 mmHg 91%
    04:00 +4°C° 0 mm 3 mps 744 mmHg 93%
    05:00 +5°C° 0 mm 2 mps 744 mmHg 94%
    06:00 +4°C° 0 mm 2 mps 744 mmHg 94%
    07:00 +4°C° 0 mm 2 mps 744 mmHg 95%
    08:00 +6°C° 0 mm 2 mps 745 mmHg 88%
    09:00 +8°C° 0 mm 2 mps 745 mmHg 82%
    10:00 +9°C° 0 mm 2 mps 745 mmHg 75%
    11:00 +10°C° 0 mm 3 mps 745 mmHg 69%
    12:00 +11°C° 0 mm 3 mps 745 mmHg 63%
    13:00 +13°C° 0 mm 3 mps 745 mmHg 57%
    14:00 +13°C° 0 mm 3 mps 746 mmHg 57%
    15:00 +14°C° 0 mm 2 mps 746 mmHg 57%
    16:00 +14°C° 0 mm 2 mps 746 mmHg 56%
    17:00 +12°C° 0 mm 2 mps 746 mmHg 64%
    18:00 +9°C° 0 mm 2 mps 747 mmHg 72%
    19:00 +9°C° 0 mm 1 mps 747 mmHg 80%
    20:00 +8°C° 0 mm 1 mps 747 mmHg 83%
    21:00 +7°C° 0 mm 1 mps 748 mmHg 86%
    22:00 +7°C° 0 mm 1 mps 748 mmHg 89%
    23:00 +6°C° 0 mm 1 mps 748 mmHg 91%

    21 September, Friday

    Time Temperature Precipitation Wind Pressure Humidity
    00:00 +6°C° 0 mm 1 mps 749 mmHg 92%
    01:00 +6°C° 0 mm 1 mps 749 mmHg 94%
    02:00 +5°C° 0 mm 1 mps 749 mmHg 94%
    03:00 +5°C° 0 mm 1 mps 750 mmHg 94%
    04:00 +5°C° 0 mm 1 mps 750 mmHg 95%
    05:00 +5°C° 0 mm 1 mps 750 mmHg 94%
    06:00 +5°C° 0 mm 1 mps 751 mmHg 94%
    07:00 +5°C° 0 mm 1 mps 751 mmHg 94%
    08:00 +7°C° 0 mm 1 mps 751 mmHg 85%
    09:00 +9°C° 0 mm 1 mps 752 mmHg 75%
    10:00 +12°C° 0 mm 1 mps 752 mmHg 66%
    11:00 +13°C° 0 mm 1 mps 752 mmHg 61%
    12:00 +14°C° 0 mm 1 mps 752 mmHg 57%
    13:00 +15°C° 0 mm 1 mps 752 mmHg 52%
    14:00 +15°C° 0 mm 1 mps 752 mmHg 52%
    15:00 +15°C° 0 mm 1 mps 752 mmHg 52%
    16:00 +15°C° 0 mm 1 mps 752 mmHg 52%
    17:00 +13°C° 0 mm 1 mps 752 mmHg 59%
    18:00 +11°C° 0 mm 1 mps 753 mmHg 67%
    19:00 +10°C° 0 mm 1 mps 753 mmHg 74%
    20:00 +9°C° 0 mm 1 mps 753 mmHg 76%
    21:00 +9°C° 0 mm 1 mps 753 mmHg 78%
    22:00 +8°C° 0 mm 1 mps 753 mmHg 80%
    23:00 +8°C° 0 mm 1 mps 754 mmHg 84%

    22 September, Saturday

    Time Temperature Precipitation Wind Pressure Humidity
    00:00 +8°C° 0 mm 1 mps 754 mmHg 87%
    01:00 +8°C° 0 mm 1 mps 754 mmHg 90%
    02:00 +8°C° 0 mm 1 mps 754 mmHg 93%
    03:00 +8°C° 0 mm 1 mps 754 mmHg 95%
    04:00 +9°C° 0 mm 1 mps 754 mmHg 97%
    05:00 +9°C° 0 mm 1 mps 754 mmHg 97%
    06:00 +10°C° 0 mm 1 mps 754 mmHg 98%
    07:00 +10°C° 0 mm 1 mps 754 mmHg 98%
    08:00 +11°C° 0 mm 1 mps 754 mmHg 95%
    09:00 +12°C° 0 mm 1 mps 754 mmHg 92%
    10:00 +13°C° 0 mm 1 mps 754 mmHg 89%
    11:00 +15°C° 0 mm 1 mps 754 mmHg 83%
    12:00 +16°C° 0 mm 1 mps 754 mmHg 77%
    13:00 +19°C° 0 mm 1 mps 754 mmHg 71%
    14:00 +19°C° 0 mm 1 mps 754 mmHg 70%
    15:00 +19°C° 0 mm 1 mps 754 mmHg 70%
    16:00 +19°C° 0 mm 1 mps 754 mmHg 70%
    17:00 +18°C° 0 mm 1 mps 754 mmHg 78%
    18:00 +15°C° 0 mm 1 mps 754 mmHg 86%
    19:00 +14°C° 0 mm 1 mps 754 mmHg 94%
    20:00 +13°C° 0 mm 1 mps 754 mmHg 95%
    21:00 +13°C° 0 mm 1 mps 754 mmHg 96%
    22:00 +12°C° 0 mm 1 mps 754 mmHg 97%
    23:00 +12°C° 0 mm 1 mps 754 mmHg 97%

    23 September, Sunday

    Time Temperature Precipitation Wind Pressure Humidity
    00:00 +12°C° 0 mm 1 mps 754 mmHg 97%
    01:00 +12°C° 0 mm 1 mps 754 mmHg 98%
    02:00 +12°C° 0 mm 1 mps 754 mmHg 98%
    03:00 +12°C° 0 mm 1 mps 754 mmHg 98%
    04:00 +12°C° 0 mm 1 mps 754 mmHg 98%
    05:00 +12°C° 0 mm 1 mps 754 mmHg 98%
    06:00 +12°C° 0 mm 1 mps 754 mmHg 98%
    07:00 +12°C° 0 mm 1 mps 754 mmHg 98%
    08:00 +13°C° 0 mm 2 mps 754 mmHg 94%
    09:00 +15°C° 0 mm 2 mps 754 mmHg 90%
    10:00 +16°C° 0 mm 2 mps 754 mmHg 86%
    11:00 +18°C° 0 mm 2 mps 754 mmHg 80%
    12:00 +19°C° 0 mm 2 mps 754 mmHg 75%
    13:00 +20°C° 0 mm 2 mps 754 mmHg 69%
    14:00 +21°C° 0 mm 2 mps 753 mmHg 69%
    15:00 +21°C° 0 mm 2 mps 753 mmHg 68%
    16:00 +21°C° 0 mm 2 mps 753 mmHg 68%
    17:00 +19°C° 0 mm 2 mps 753 mmHg 76%
    18:00 +17°C° 0 mm 2 mps 753 mmHg 84%
    19:00 +16°C° 0 mm 2 mps 753 mmHg 93%
    20:00 +15°C° 0 mm 2 mps 753 mmHg 94%
    21:00 +15°C° 0 mm 2 mps 753 mmHg 95%
    22:00 +14°C° 0 mm 2 mps 753 mmHg 97%
    23:00 +14°C° 0 mm 2 mps 753 mmHg 97%
    Show more